TKJ3176 LTFJ-LTAU

Flight info

Callsign TKJ3176
Flight time N/A
Altitude 35000
Route VICEN T57 VEVUD UT341 BAG UL614 GOBIT UG8 MARTI UW76 SARIZ
Aircraft B738/M-SDE2E3FGHIRWXY/LB1

Departure

Time 2026-05-01 14:59
Airport Istanbul Sabiha Gökçen International Airport (LTFJ)

Arrival

Time N/A
Airport Kayseri Erkilet International Airport (LTAU)
Time Latitude Longitude Altitude Speed Heading
2026-05-01 14:33 40.90857 29.31906 310 ft 0 kts 244°
2026-05-01 14:48 40.90861 29.31916 310 ft 4 kts 242°
2026-05-01 14:48 40.90897 29.31961 309 ft 4 kts 178°
2026-05-01 14:49 40.90907 29.31959 308 ft 1 kts 154°
2026-05-01 14:50 40.90907 29.31960 308 ft 0 kts 154°
2026-05-01 14:51 40.90901 29.31964 309 ft 2 kts 153°
2026-05-01 14:51 40.90847 29.32016 310 ft 7 kts 109°
2026-05-01 14:52 40.90750 29.32113 310 ft 10 kts 154°
2026-05-01 14:52 40.90701 29.32114 310 ft 8 kts 230°
2026-05-01 14:52 40.90636 29.31946 309 ft 10 kts 233°
2026-05-01 14:53 40.90568 29.31946 310 ft 12 kts 154°
2026-05-01 14:53 40.90489 29.31993 310 ft 13 kts 170°
2026-05-01 14:53 40.90429 29.31910 310 ft 15 kts 243°
2026-05-01 14:53 40.90381 29.31778 310 ft 17 kts 244°
2026-05-01 14:54 40.90325 29.31627 310 ft 19 kts 244°
2026-05-01 14:54 40.90265 29.31463 309 ft 20 kts 244°
2026-05-01 14:54 40.90208 29.31303 309 ft 19 kts 243°
2026-05-01 14:54 40.90149 29.31149 310 ft 18 kts 244°
2026-05-01 14:55 40.90094 29.30999 310 ft 18 kts 244°
2026-05-01 14:55 40.90041 29.30855 310 ft 17 kts 244°
2026-05-01 14:55 40.89990 29.30717 310 ft 17 kts 244°
2026-05-01 14:55 40.89941 29.30583 310 ft 16 kts 244°
2026-05-01 14:56 40.89892 29.30448 309 ft 17 kts 244°
2026-05-01 14:56 40.89835 29.30294 308 ft 20 kts 243°
2026-05-01 14:56 40.89770 29.30120 308 ft 22 kts 244°
2026-05-01 14:56 40.89698 29.29926 309 ft 24 kts 245°
2026-05-01 14:57 40.89627 29.29730 305 ft 23 kts 244°
2026-05-01 14:57 40.89498 29.29381 302 ft 14 kts 244°
2026-05-01 14:57 40.89453 29.29272 304 ft 13 kts 224°
2026-05-01 14:58 40.89370 29.29271 302 ft 13 kts 156°
2026-05-01 14:58 40.89293 29.29320 302 ft 9 kts 153°
2026-05-01 14:58 40.89287 29.29377 301 ft 7 kts 65°
2026-05-01 14:58 40.89290 29.29387 304 ft 3 kts 65°
2026-05-01 14:59 40.89400 29.29684 305 ft 71 kts 64°
2026-05-01 14:59 40.89712 29.30531 310 ft 132 kts 63°
2026-05-01 14:59 40.90143 29.31685 842 ft 141 kts 62°
2026-05-01 14:59 40.90574 29.32875 1597 ft 146 kts 60°
2026-05-01 15:00 40.91515 29.35404 2673 ft 174 kts 60°
2026-05-01 15:00 40.92085 29.36906 2994 ft 195 kts 63°
2026-05-01 15:00 40.92438 29.38723 3356 ft 214 kts 84°
2026-05-01 15:01 40.92281 29.40751 3870 ft 232 kts 99°
2026-05-01 15:01 40.91747 29.42836 4400 ft 247 kts 105°
2026-05-01 15:01 40.90785 29.44778 5060 ft 265 kts 139°
2026-05-01 15:01 40.89109 29.45861 5889 ft 271 kts 155°
2026-05-01 15:02 40.87353 29.46820 6635 ft 275 kts 153°
2026-05-01 15:02 40.86196 29.47502 6923 ft 275 kts 152°
2026-05-01 15:02 40.83859 29.48944 6989 ft 282 kts 150°
2026-05-01 15:02 40.82081 29.50056 7256 ft 284 kts 152°
2026-05-01 15:03 40.80306 29.51179 8088 ft 283 kts 152°
2026-05-01 15:03 40.78538 29.52310 8950 ft 282 kts 150°
2026-05-01 15:03 40.77009 29.53941 9505 ft 288 kts 122°
2026-05-01 15:03 40.76206 29.56335 10224 ft 289 kts 105°
2026-05-01 15:04 40.75678 29.58978 10474 ft 309 kts 103°
2026-05-01 15:04 40.75148 29.61823 10690 ft 329 kts 103°
2026-05-01 15:04 40.74573 29.64802 11141 ft 340 kts 104°
2026-05-01 15:04 40.73977 29.67804 11769 ft 344 kts 105°
2026-05-01 15:05 40.73339 29.70866 12467 ft 347 kts 107°
2026-05-01 15:05 40.72652 29.73940 13120 ft 354 kts 108°
2026-05-01 15:05 40.71938 29.77062 13808 ft 359 kts 108°
2026-05-01 15:05 40.71212 29.80224 14474 ft 362 kts 108°
2026-05-01 15:06 40.70479 29.83425 15090 ft 367 kts 108°
2026-05-01 15:06 40.69735 29.86683 15689 ft 373 kts 109°
2026-05-01 15:06 40.68984 29.89977 16371 ft 377 kts 109°
2026-05-01 15:06 40.68238 29.93258 17080 ft 381 kts 109°
2026-05-01 15:07 40.67470 29.96628 17704 ft 387 kts 109°
2026-05-01 15:07 40.66691 30.00047 18392 ft 392 kts 109°
2026-05-01 15:07 40.65901 30.03508 18959 ft 397 kts 109°
2026-05-01 15:07 40.65105 30.06997 19533 ft 400 kts 109°
2026-05-01 15:08 40.64301 30.10516 20120 ft 403 kts 110°
2026-05-01 15:08 40.63488 30.14067 20638 ft 407 kts 110°
2026-05-01 15:08 40.62666 30.17653 21176 ft 411 kts 110°
2026-05-01 15:08 40.61833 30.21273 21723 ft 415 kts 110°
2026-05-01 15:09 40.61005 30.24869 22277 ft 418 kts 110°
2026-05-01 15:09 40.60159 30.28542 22853 ft 421 kts 110°
2026-05-01 15:09 40.59307 30.32235 23379 ft 424 kts 110°
2026-05-01 15:09 40.58444 30.35967 23892 ft 428 kts 111°
2026-05-01 15:10 40.57573 30.39723 24336 ft 431 kts 111°
2026-05-01 15:10 40.55804 30.47344 25076 ft 439 kts 111°
2026-05-01 15:10 40.54907 30.51198 25514 ft 442 kts 111°
2026-05-01 15:11 40.54004 30.55071 25929 ft 445 kts 111°
2026-05-01 15:11 40.52188 30.62847 26699 ft 451 kts 111°
2026-05-01 15:11 40.51263 30.66797 27077 ft 454 kts 112°
2026-05-01 15:12 40.50330 30.70774 27448 ft 457 kts 112°
2026-05-01 15:12 40.48438 30.78802 28182 ft 463 kts 112°
2026-05-01 15:12 40.47479 30.82847 28555 ft 465 kts 112°
2026-05-01 15:13 40.44573 30.95080 29504 ft 474 kts 112°
2026-05-01 15:14 40.42605 31.03347 30262 ft 476 kts 112°
2026-05-01 15:14 40.41611 31.07507 30473 ft 479 kts 112°
2026-05-01 15:14 40.39605 31.15889 31036 ft 482 kts 112°
2026-05-01 15:15 40.37662 31.24242 31664 ft 484 kts 109°
2026-05-01 15:15 40.36225 31.32857 32423 ft 482 kts 105°
2026-05-01 15:16 40.34915 31.41508 32916 ft 486 kts 106°
2026-05-01 15:16 40.33539 31.50176 33554 ft 485 kts 106°
2026-05-01 15:17 40.32122 31.58815 34122 ft 485 kts 107°
2026-05-01 15:18 40.29988 31.71696 34833 ft 484 kts 107°
2026-05-01 15:18 40.29270 31.76013 35043 ft 485 kts 106°
2026-05-01 15:19 40.27095 31.89054 35043 ft 488 kts 107°
2026-05-01 15:19 40.24566 32.01778 35036 ft 479 kts 111°
2026-05-01 15:20 40.21765 32.14269 35030 ft 479 kts 111°
2026-05-01 15:21 40.19923 32.22634 35027 ft 478 kts 111°
2026-05-01 15:21 40.18092 32.30996 35033 ft 478 kts 111°
2026-05-01 15:22 40.15350 32.43471 35013 ft 478 kts 111°
2026-05-01 15:22 40.13508 32.51803 35032 ft 477 kts 111°
2026-05-01 15:23 40.11659 32.60130 35029 ft 477 kts 111°
2026-05-01 15:23 40.09808 32.68441 35007 ft 476 kts 111°
2026-05-01 15:24 40.07968 32.76671 35001 ft 474 kts 111°
2026-05-01 15:24 40.05988 32.84853 35005 ft 470 kts 115°
2026-05-01 15:25 40.03640 32.92784 34992 ft 467 kts 117°
2026-05-01 15:25 40.01249 33.00650 34993 ft 466 kts 117°
2026-05-01 15:26 39.98895 33.08528 34996 ft 466 kts 116°
2026-05-01 15:26 39.96578 33.16349 34995 ft 466 kts 116°
2026-05-01 15:27 39.94247 33.24214 34980 ft 465 kts 116°
2026-05-01 15:28 39.90745 33.35973 34984 ft 464 kts 116°
2026-05-01 15:28 39.88420 33.43746 34982 ft 464 kts 116°
2026-05-01 15:29 39.84899 33.55483 34970 ft 464 kts 116°
2026-05-01 15:30 39.81009 33.71581 34972 ft 469 kts 108°
2026-05-01 15:31 39.77891 33.87377 33983 ft 436 kts 110°
2026-05-01 15:31 39.76062 33.94725 33412 ft 420 kts 116°
2026-05-01 15:32 39.74003 34.01767 32693 ft 414 kts 116°
2026-05-01 15:32 39.71988 34.08654 31992 ft 408 kts 116°
2026-05-01 15:33 39.69044 34.18911 30931 ft 401 kts 116°
2026-05-01 15:34 39.66165 34.28985 29860 ft 393 kts 116°